Regional Weather Roundup
Issued by NWS

Home | Current Version | Previous Version | Text Only | Print | Product List | Glossary On
Versions: 1 2 3 4 5 6 7 8 9 10 11 12 13 14 15 16 17 18 19 20 21 22 23 24 25 26 27 28 29 30 31 32 33 34 35 36 37 38 39 40 41 42 43 44 45 46 47 48 49 50
000
ASUS44 KBMX 260310
RWRAL

ALABAMA REGIONAL WEATHER ROUNDUP
NATIONAL WEATHER SERVICE BIRMINGHAM AL
1000 PM CDT SAT APR 25 2015

NOTE: "FAIR" INDICATES FEW OR NO CLOUDS BELOW 12,000 FEET
WITH NO SIGNIFICANT WEATHER AND/OR OBSTRUCTIONS TO VISIBILITY.

THE REMARK "TC" DENOTES TEMPERATURE IN DEGREES CELSIUS.

ALZ001>011-014-016>018-020-260400-
NORTH ALABAMA

CITY           SKY/WX    TMP DP  RH WIND       PRES   REMARKS
MUSCLE SHOALS  CLEAR     71  66  84 SW8       29.61R
HUNTSVILLE     CLEAR     71  66  84 SW8       29.62R
DECATUR        CLEAR     71  67  87 SW8       29.62R
HALEYVILLE       N/A     69  69 100 SW9       29.66R
GADSDEN        CLEAR    N/A N/A N/A CALM      29.63R
$$

ALZ012-013-022-023-030>036-040>044-260400-
WEST CENTRAL ALABAMA

CITY           SKY/WX    TMP DP  RH WIND       PRES   REMARKS
TUSCALOOSA     CLEAR     69  65  86 S6        29.66R
$$

ALZ015-024>027-033>036-040>044-260400-
CENTRAL ALABAMA

CITY           SKY/WX    TMP DP  RH WIND       PRES   REMARKS
BIRMINGHAM     CLEAR     71  67  87 SW7       29.67R
MONTGOMERY     PTCLDY    68  62  81 S3        29.70R
SHELBY CO ARPT CLEAR     68  64  87 S7        29.67R
MAXWELL AFB    NOT AVBL
GREENVILLE     FAIR      65  63  93 S5        29.71S
$$

ALZ019-021-028-029-037-038-045>048-260400-
EAST CENTRAL ALABAMA

CITY           SKY/WX    TMP DP  RH WIND       PRES   REMARKS
ANNISTON       PTCLDY    63  61  93 SW3       29.66R
ALEXANDER CITY CLEAR     69  64  83 SW6       29.70R
AUBURN         NOT AVBL
$$

ALZ051>064-260400-
SOUTHWEST ALABAMA

CITY           SKY/WX    TMP DP  RH WIND       PRES   REMARKS
MOBILE         MOCLDY    68  65  90 SW5       29.75R
BROOKLEY FIELD MOCLDY    70  65  84 S3        29.75R
EVERGREEN      PTCLDY    66  65  96 CALM      29.72R
$$

ALZ049-050-065>069-260400-
SOUTHEAST ALABAMA

CITY           SKY/WX    TMP DP  RH WIND       PRES   REMARKS
DOTHAN         MOCLDY    67  65  93 SW3       29.77R
OZARK          NOT AVBL
TROY           MOCLDY    66  65  96 S3        29.73R FOG
EUFAULA        FAIR      64  63  96 CALM      29.71S
$$


USA.gov is the U.S. government's official web portal to all federal, state and local government web resources and services.